sat.trackr.live / text

‹ back to catalog

STARLINK-31076

NORAD 58736 · 2024-005J

PAYLOAD ACTIVE UNKNOWN

§ Identity

Operator
Country
US
Launch date
2024-01-07
Launch site
AFETR
Launch vehicle
Mass (kg)
RCS (m²)

Purposes: comms

External: N2YO · Heavens-Above · Gunter

§ Orbital elements

Epoch: 2026-09-20T12:37:31.319616Z

Period
94.27 min
Inclination
43.0021°
Eccentricity
0.0000833
Mean motion
15.27574922 rev/d
Perigee alt
482.5 km
Apogee alt
483.6 km
Semi-major
6,861.2 km
B*
-8.1679e-7
RAAN
199.2196°
Arg perigee
269.9040°
Mean anomaly
90.1716°
Rev number
15,028

§ Raw data

STARLINK-310761 58736U 24005J   26263.52605694 -.00000284  00000+0 -81679-6 0  99982 58736  43.0021 199.2196 0000833 269.9040  90.1716 15.27574922150286

JSON: /api/v1/satellites/58736 · /tle

For live sub-satellite position, see the globe view (requires WebGL).

§ Visibility from observer

Set your observer location to see the next 7 days of passes ≥ 10°. The values pass through the URL so the page stays shareable.

No JS? Fill the form by hand. The geolocation button needs JavaScript.